Back to catalog

CZ-12 R/B

AliveLEO
NORAD 69581·ROCKET BODY·🇨🇳 China

Launched Jun 17, 2026 from Wenchang Space Launch Site

Loading…

Next Passes (next 24 hours)

TLE

FreshSource: Space-Track

Epoch: Sep 14, 2026, 08:28 UTC

1 69581U 26137K   26257.35328925 -.00000067  00000-0  47144-4 0  9995
2 69581  49.9882 247.3348 0077425  58.7399 302.1063 14.11697712 12601

Track CZ-12 R/B in real time with AllMySat

Download on the App Store